Location: Alta
(39.2070°N, 120.8111°W)
Time: 19:44:20
(UTC+00:00)

POLYITAN 1 - Pass Details

Date: 07 April 2023
Orbit: 575 x 592 km, 98.0° (Epoch: 01 June)

Event Time Altitude Azimuth Distance (km) Brightness Sun altitude
Rises 10:44:03 0° 5° (N) 2,805 ? -31.2°
Reaches altitude 10° 10:46:16 10° 360° (N) 1,898 ? -30.8°
Enters shadow 10:47:19 17° 354° (N) 1,497 ? -30.7°
